Content
SEND FEEDBACK

Daily
Averages
Monthly
Summary
Australia

SOUTH ARM, TASMANIA


Home > Oceania > Australia > Tasmania
Elevation: 2362 feet     Latitude: 42 55S     Longitude: 147 14E

WEATHER
 
SELECT A DAY
Number of Records: 303,672;   Date Range: 7/1/96 - 9/30/14
 
SHARE

PRINT THIS DATA

[ ← Previous Day ]
WEATHER ALMANAC - FEBRUARY 5, 2013
[ Next Day → ]
[ °C ]   °F
Weather ElementAverageHighLow
Temperature65.4 °F77 °F (3:00 pm)53 °F (3:00 am)
Dewpoint51.7 °F57.2 °F (11:00 pm)48 °F (2:00 am)
Humidity61 %88 % (5:30 am)33 % (2:00 pm)
Barometer30.16 in30.27 in (12:00 am)30.06 in (5:00 pm)
Wind Speed9.2 mph17.3 mph (2:00 pm)
Weather ElementAverage
Visibility8 mi
Wind DirectionSSE (172.9 °)

Weather ElementTotal
Precipitation---
Growing Degree Days15 (Base 50)
Averaged from 63 records on February 5, 2013
WEATHER CONDITIONS BREAKOUT
WIND DIRECTION BREAKOUT
WEATHER BY HOUR - FEBRUARY 5, 2013
[ °C ]   °F
Local TimeTemperatureDewpointHumidityBarometerVisibilityWind DirectionWind SpeedGust SpeedPrecipitationEventsConditions
12:00 AM59.0 °F48.2 °F67 %30.27 in6.2 miNNE (30°)6.9 mphMostly Cloudy
12:30 AM60.8 °F48.2 °F63 %30.27 in6.2 miNNE (20°)8.1 mphMostly Cloudy
1:00 AM59.0 °F48.2 °F67 %30.24 in6.2 miNorth (10°)5.8 mphMostly Cloudy
1:30 AM57.2 °F48.2 °F72 %30.24 in6.2 miWSW (250°)4.6 mphScattered Clouds
2:00 AM58.0 °F48.0 °F62 %30.26 inWest (280°)3.5 mph
2:00 AM57.2 °F48.2 °F72 %30.24 in6.2 miWest (280°)3.5 mphMostly Cloudy
2:30 AM55.4 °F48.2 °F77 %30.24 in6.2 miCalmPartly Cloudy
3:00 AM53.6 °F48.2 °F82 %30.24 in6.2 miWNW (290°)4.6 mphPartly Cloudy
3:00 AM53.0 °F48.0 °F78 %30.25 in16.0 miWNW (290°)4.6 mphPartly Cloudy
3:30 AM55.4 °F48.2 °F77 %30.21 in6.2 miNNW (330°)4.6 mphPartly Cloudy
4:00 AM53.6 °F48.2 °F82 %30.21 inWNW (290°)6.9 mphClear
4:30 AM53.6 °F48.2 °F82 %30.21 inWNW (300°)5.8 mphClear
5:00 AM54.0 °F49.0 °F77 %30.24 inNW (310°)8.1 mph
5:00 AM53.6 °F48.2 °F82 %30.21 in6.2 miNW (310°)8.1 mphPartly Cloudy
5:30 AM53.6 °F50.0 °F88 %30.21 in6.2 miNW (310°)9.2 mphScattered Clouds
6:00 AM53.6 °F48.2 °F82 %30.24 in6.2 miWNW (290°)8.1 mphScattered Clouds
6:00 AM53.0 °F49.0 °F80 %30.24 in16.0 miWNW (290°)8.1 mphPartly Cloudy
6:30 AM53.6 °F50.0 °F88 %30.24 in6.2 miNNW (330°)6.9 mphScattered Clouds
7:00 AM53.6 °F50.0 °F88 %30.24 in6.2 miWNW (300°)5.8 mphScattered Clouds
7:30 AM57.2 °F50.0 °F77 %30.24 in6.2 miNW (320°)6.9 mphScattered Clouds
8:00 AM59.0 °F50.0 °F65 %30.25 inNW (320°)6.9 mph
8:00 AM59.0 °F50.0 °F72 %30.24 in6.2 miNW (320°)6.9 mphScattered Clouds
8:30 AM59.0 °F50.0 °F72 %30.24 in6.2 miWNW (300°)6.9 mphMostly Cloudy
9:00 AM59.0 °F50.0 °F72 %30.24 in6.2 miNW (310°)8.1 mphScattered Clouds
9:00 AM60.0 °F50.0 °F61 %30.25 in19.0 miNW (310°)8.1 mphHaze
9:30 AM64.4 °F51.8 °F64 %30.24 in6.2 miNNW (330°)5.8 mphPartly Cloudy
10:00 AM66.2 °F50.0 °F56 %30.21 in6.2 miNE (40°)5.8 mphPartly Cloudy
10:30 AM68.0 °F51.8 °F56 %30.21 in6.2 miNE (40°)4.6 mphPartly Cloudy
11:00 AM69.0 °F51.0 °F43 %30.22 inSSE (150°)9.2 mph
11:00 AM69.8 °F51.8 °F53 %30.21 in6.2 miSSE (150°)9.2 mphScattered Clouds
11:30 AM69.8 °F53.6 °F56 %30.21 in6.2 miSSE (150°)11.5 mphScattered Clouds
12:00 PM69.8 °F50.0 °F49 %30.18 in6.2 miSE (140°)10.4 mphScattered Clouds
12:00 PM71.0 °F51.0 °F37 %30.21 in22.0 miSE (140°)10.4 mphPartly Cloudy
12:30 PM71.6 °F50.0 °F46 %30.18 in6.2 miSSE (150°)15.0 mphPartly Cloudy
1:00 PM71.6 °F48.2 °F43 %30.18 in6.2 miSSE (150°)13.8 mphPartly Cloudy
1:30 PM73.4 °F50.0 °F44 %30.15 in6.2 miSSE (150°)15.0 mphPartly Cloudy
2:00 PM74.0 °F51.0 °F33 %30.16 inSE (140°)17.3 mph
2:00 PM73.4 °F51.8 °F47 %30.15 in6.2 miSE (140°)17.3 mphPartly Cloudy
2:30 PM73.4 °F51.8 °F47 %30.12 in6.2 miSE (140°)17.3 mphPartly Cloudy
3:00 PM77.0 °F53.6 °F44 %30.12 in6.2 miSE (140°)16.1 mphPartly Cloudy
3:00 PM76.0 °F54.0 °F35 %30.13 in22.0 miSE (140°)16.1 mphPartly Cloudy
3:30 PM75.2 °F53.6 °F47 %30.12 in6.2 miSSE (150°)13.8 mphPartly Cloudy
4:00 PM77.0 °F55.4 °F47 %30.09 in6.2 miSSE (150°)17.3 mphPartly Cloudy
4:30 PM75.2 °F55.4 °F50 %30.09 in6.2 miSSE (160°)17.3 mphPartly Cloudy
5:00 PM76.0 °F55.0 °F37 %30.09 inSE (140°)16.1 mph
5:00 PM77.0 °F55.4 °F47 %30.06 in6.2 miSE (140°)16.1 mphPartly Cloudy
5:30 PM77.0 °F55.4 °F47 %30.06 in6.2 miSE (140°)12.7 mphPartly Cloudy
6:00 PM77.0 °F55.4 °F47 %30.06 in6.2 miENE (70°)9.2 mphPartly Cloudy
6:00 PM77.0 °F55.0 °F35 %30.07 in22.0 miENE (70°)9.2 mphPartly Cloudy
6:30 PM77.0 °F55.4 °F47 %30.06 in6.2 miENE (70°)10.4 mphPartly Cloudy
7:00 PM75.2 °F55.4 °F50 %30.06 in6.2 miENE (70°)9.2 mphPartly Cloudy
7:30 PM75.2 °F55.4 °F50 %30.06 in6.2 miNE (50°)10.4 mphPartly Cloudy
8:00 PM72.0 °F56.0 °F47 %30.07 inNE (50°)9.2 mph
8:00 PM71.6 °F55.4 °F57 %30.06 in6.2 miNE (50°)9.2 mphPartly Cloudy
8:30 PM69.8 °F53.6 °F56 %30.06 in6.2 miNE (40°)9.2 mphPartly Cloudy
9:00 PM68.0 °F55.4 °F64 %30.06 in6.2 miNE (40°)8.1 mphPartly Cloudy
9:00 PM68.0 °F55.0 °F54 %30.08 in22.0 miNE (40°)8.1 mphPartly Cloudy
9:30 PM68.0 °F55.4 °F64 %30.06 in6.2 miNE (50°)9.2 mphPartly Cloudy
10:00 PM66.2 °F55.4 °F68 %30.06 in6.2 miNE (50°)8.1 mphPartly Cloudy
10:30 PM64.4 °F53.6 °F68 %30.06 in6.2 miENE (60°)4.6 mphPartly Cloudy
11:00 PM64.0 °F56.0 °F70 %30.08 inSouth (190°)8.1 mph
11:00 PM64.4 °F57.2 °F77 %30.06 in6.2 miSouth (190°)8.1 mphPartly Cloudy
11:30 PM62.6 °F55.4 °F77 %30.06 in6.2 miWSW (240°)4.6 mphPartly Cloudy
Hourly data recorded from YMHB, located miles away from South Arm, Tasmania







STORIES FROM OUR PARTNERS